AAL956 KMIA-MWCR

Flight info

Callsign AAL956
Flight time N/A
Altitude 33000
Route MAYNR3 FUNDI UM335 ALVEK UM328 UCL/N0457F340 DCT LACET DCT ALONA DCT MOBIX DCT SASER
Aircraft A319/M-SDE3FGHIRWY/LB1

Departure

Time 2026-05-04 16:11
Airport Miami International Airport (KMIA)

Arrival

Time N/A
Airport Owen Roberts International Airport (MWCR)
Time Latitude Longitude Altitude Speed Heading
2026-05-04 15:39 25.79468 -80.28124 23 ft 0 kts 355°
2026-05-04 15:55 25.79467 -80.28124 23 ft 0 kts 355°
2026-05-04 16:01 25.79457 -80.28123 34 ft 4 kts 355°
2026-05-04 16:01 25.79430 -80.28120 24 ft 4 kts 347°
2026-05-04 16:02 25.79407 -80.28109 27 ft 4 kts 307°
2026-05-04 16:02 25.79402 -80.28089 26 ft 1 kts 245°
2026-05-04 16:02 25.79403 -80.28088 26 ft 0 kts 245°
2026-05-04 16:05 25.79396 -80.28105 24 ft 5 kts 245°
2026-05-04 16:05 25.79348 -80.28267 22 ft 15 kts 262°
2026-05-04 16:06 25.79340 -80.28382 23 ft 15 kts 265°
2026-05-04 16:06 25.79370 -80.28704 18 ft 18 kts 299°
2026-05-04 16:07 25.79451 -80.28863 20 ft 18 kts 300°
2026-05-04 16:07 25.79639 -80.29230 23 ft 18 kts 299°
2026-05-04 16:08 25.79705 -80.29360 22 ft 20 kts 301°
2026-05-04 16:08 25.79908 -80.29764 18 ft 11 kts 293°
2026-05-04 16:09 25.79972 -80.29944 15 ft 14 kts 287°
2026-05-04 16:09 25.80054 -80.30120 19 ft 12 kts
2026-05-04 16:10 25.80083 -80.29864 17 ft 49 kts 87°
2026-05-04 16:11 25.80186 -80.26859 685 ft 165 kts 86°
2026-05-04 16:11 25.80040 -80.25592 1276 ft 171 kts 112°
2026-05-04 16:12 25.77155 -80.22530 2580 ft 226 kts 137°
2026-05-04 16:12 25.72749 -80.19238 4421 ft 277 kts 172°
2026-05-04 16:13 25.68863 -80.19046 6379 ft 281 kts 181°
2026-05-04 16:13 25.64953 -80.19379 8195 ft 284 kts 191°
2026-05-04 16:14 25.61108 -80.20355 9937 ft 284 kts 210°
2026-05-04 16:14 25.57666 -80.22557 10829 ft 318 kts 214°
2026-05-04 16:15 25.51740 -80.26273 13256 ft 330 kts 214°
2026-05-04 16:16 25.47746 -80.28772 14890 ft 335 kts 215°
2026-05-04 16:16 25.41566 -80.32668 17035 ft 347 kts 214°
2026-05-04 16:17 25.37333 -80.35340 18291 ft 354 kts 214°
2026-05-04 16:18 25.30806 -80.39456 19884 ft 366 kts 214°
2026-05-04 16:18 25.28585 -80.40852 20417 ft 370 kts 214°
2026-05-04 16:19 25.21543 -80.44697 22054 ft 389 kts 202°
2026-05-04 16:19 25.16294 -80.46416 23114 ft 397 kts 202°
2026-05-04 16:20 25.08242 -80.49050 24470 ft 407 kts 202°
2026-05-04 16:20 25.02776 -80.50831 25324 ft 412 kts 202°
2026-05-04 16:21 24.94485 -80.53543 26519 ft 420 kts 202°
2026-05-04 16:22 24.88843 -80.55385 27354 ft 426 kts 203°
2026-05-04 16:22 24.81221 -80.59935 28572 ft 412 kts 229°
2026-05-04 16:23 24.76249 -80.67524 29794 ft 410 kts 242°
2026-05-04 16:24 24.70047 -80.78190 31097 ft 418 kts 242°
2026-05-04 16:25 24.66904 -80.83592 31796 ft 419 kts 241°
2026-05-04 16:26 24.60671 -80.94258 33053 ft 405 kts 241°
2026-05-04 16:26 24.54624 -81.00507 33054 ft 415 kts 209°
2026-05-04 16:27 24.48862 -81.01623 33054 ft 437 kts 186°
2026-05-04 16:28 24.39736 -81.01532 33054 ft 437 kts 186°
2026-05-04 16:29 24.18450 -81.01344 33045 ft 437 kts 187°
2026-05-04 16:31 24.03263 -81.01223 33036 ft 436 kts 186°
2026-05-04 16:32 23.86033 -81.00621 33046 ft 438 kts 184°
2026-05-04 16:33 23.73861 -81.00076 33025 ft 437 kts 185°
2026-05-04 16:34 23.64737 -80.99704 33043 ft 437 kts 185°
2026-05-04 16:35 23.46515 -80.98938 33018 ft 436 kts 185°
2026-05-04 16:36 23.37418 -80.98558 33032 ft 436 kts 185°
2026-05-04 16:37 23.28322 -80.98179 33039 ft 436 kts 185°
2026-05-04 16:38 23.16191 -80.97658 33023 ft 436 kts 184°
2026-05-04 16:39 23.01134 -80.97642 33041 ft 423 kts 199°
2026-05-04 16:40 22.90198 -81.01811 33042 ft 416 kts 206°
2026-05-04 16:41 22.76661 -81.07217 33031 ft 416 kts 206°
2026-05-04 16:43 22.63098 -81.12632 33040 ft 415 kts 206°
2026-05-04 16:43 22.54961 -81.15879 33044 ft 415 kts 206°
2026-05-04 16:45 22.38700 -81.22350 33047 ft 415 kts 206°
2026-05-04 16:46 22.25150 -81.27734 33045 ft 415 kts 206°
2026-05-04 16:47 22.14315 -81.32040 33035 ft 415 kts 206°
2026-05-04 16:48 22.03473 -81.36330 33043 ft 415 kts 206°
2026-05-04 16:49 21.92668 -81.40598 33045 ft 415 kts 206°
2026-05-04 16:50 21.81817 -81.44881 33029 ft 416 kts 206°
2026-05-04 16:51 21.73655 -81.48089 33036 ft 417 kts 206°
2026-05-04 16:52 21.62764 -81.52380 33039 ft 417 kts 206°
2026-05-04 16:53 21.54182 -81.54471 33025 ft 425 kts 196°
2026-05-04 16:54 21.42503 -81.56669 33033 ft 427 kts 196°
2026-05-04 16:55 21.24932 -81.59992 33039 ft 428 kts 196°
2026-05-04 16:56 21.10272 -81.62743 32992 ft 429 kts 196°
2026-05-04 16:57 21.07330 -81.63298 32731 ft 429 kts 195°
2026-05-04 16:57 21.01442 -81.64406 32231 ft 429 kts 195°
2026-05-04 16:58 20.92652 -81.66058 31491 ft 426 kts 195°
2026-05-04 16:58 20.89775 -81.66601 31258 ft 425 kts 195°
2026-05-04 16:59 20.83960 -81.67693 30791 ft 423 kts 195°
2026-05-04 17:00 20.72405 -81.69850 29831 ft 419 kts 194°
2026-05-04 17:00 20.63862 -81.71453 28646 ft 411 kts 194°
2026-05-04 17:01 20.58259 -81.72496 27671 ft 407 kts 194°
2026-05-04 17:01 20.52705 -81.73527 26737 ft 404 kts 194°
2026-05-04 17:02 20.47185 -81.74560 25810 ft 402 kts 193°
2026-05-04 17:02 20.41678 -81.75597 24896 ft 402 kts 193°
2026-05-04 17:03 20.38927 -81.76111 24434 ft 402 kts 193°
2026-05-04 17:03 20.36171 -81.76623 23961 ft 402 kts 193°
2026-05-04 17:03 20.30692 -81.77641 22950 ft 402 kts 193°
2026-05-04 17:04 20.25197 -81.78657 21978 ft 400 kts 192°
2026-05-04 17:04 20.19730 -81.79676 20996 ft 398 kts 192°
2026-05-04 17:05 20.14271 -81.80689 20004 ft 398 kts 192°
2026-05-04 17:05 20.08843 -81.81690 19165 ft 394 kts 192°
2026-05-04 17:06 20.03523 -81.82674 18086 ft 384 kts 192°
2026-05-04 17:06 20.00878 -81.82876 17578 ft 381 kts 180°
2026-05-04 17:07 19.95758 -81.81522 16676 ft 381 kts 159°
2026-05-04 17:07 19.94131 -81.80819 16376 ft 380 kts 159°
2026-05-04 17:07 19.90872 -81.79418 15802 ft 377 kts 159°
2026-05-04 17:07 19.88454 -81.78384 15451 ft 372 kts 159°
2026-05-04 17:08 19.86052 -81.77357 15051 ft 370 kts 159°
2026-05-04 17:08 19.81328 -81.75328 14100 ft 364 kts 159°
2026-05-04 17:08 19.78997 -81.74327 13606 ft 358 kts 159°
2026-05-04 17:09 19.76701 -81.73343 13164 ft 354 kts 159°
2026-05-04 17:09 19.74426 -81.72369 12733 ft 352 kts 159°
2026-05-04 17:09 19.72164 -81.71403 12307 ft 350 kts 159°
2026-05-04 17:10 19.67704 -81.69501 11462 ft 346 kts 159°
2026-05-04 17:10 19.61070 -81.66667 10198 ft 340 kts 158°
2026-05-04 17:11 19.58915 -81.65747 10072 ft 328 kts 158°
2026-05-04 17:11 19.56836 -81.64859 9948 ft 317 kts 158°
2026-05-04 17:11 19.52867 -81.63172 9578 ft 301 kts 158°
2026-05-04 17:12 19.50939 -81.62350 9235 ft 297 kts 158°
2026-05-04 17:12 19.47142 -81.60731 8142 ft 291 kts 158°
2026-05-04 17:13 19.41522 -81.58337 6582 ft 287 kts 157°
2026-05-04 17:14 19.36099 -81.56029 5415 ft 267 kts 157°
2026-05-04 17:14 19.34356 -81.55368 5046 ft 266 kts 165°
2026-05-04 17:14 19.30773 -81.54419 4275 ft 262 kts 165°
2026-05-04 17:15 19.29036 -81.53961 3913 ft 253 kts 165°
2026-05-04 17:15 19.25867 -81.52698 3311 ft 240 kts 132°
2026-05-04 17:16 19.25384 -81.49459 2647 ft 230 kts 77°
2026-05-04 17:16 19.26853 -81.44886 1645 ft 207 kts 73°
2026-05-04 17:17 19.27274 -81.43475 1358 ft 195 kts 74°
2026-05-04 17:17 19.28301 -81.39772 652 ft 152 kts 71°
2026-05-04 17:18 19.28560 -81.38744 415 ft 142 kts 73°
2026-05-04 17:18 19.28959 -81.37104 109 ft 135 kts 72°
2026-05-04 17:19 19.29358 -81.35359 143 ft 133 kts 73°